This demonstration page uses our WeatherBlox Daily Observations layout. Learn more.

Left ArrowRight Arrow

44.89941, -97.11507

Hourly Observations for April 10, 2019

Temp ( °F °C ) Dew Point ( °F °C ) Humidity (%) Winds ( mph kmh ) Pressure ( in mb ) Visibility ( mi km ) Precip ( " mm )
12:53 am 00:53 Cloudy 30 -1.1 25 -3.9 82 82 NE 16 26 30.01 1016 10 16 0.00 0.00
1:53 am 01:53 Cloudy 30 -1.1 25 -3.9 82 82 NE 14 22 30.01 1016 10 16 0.00 0.00
2:53 am 02:53 Cloudy 30 -1.1 24 -4.4 79 79 ENE 16 26 29.99 1016 10 16 0.00 0.00
3:53 am 03:53 Cloudy 31 -0.6 22 -5.6 69 69 E 15 24 29.95 1014 10 16 0.00 0.00
4:53 am 04:53 Cloudy 30 -1.1 21 -6.1 69 69 E 13 20 29.98 1015 10 16 0.00 0.00
5:53 am 05:53 Cloudy 30 -1.1 20 -6.7 66 66 E 16 26 30.00 1016 10 16 0.00 0.00
6:53 am 06:53 Cloudy with Light Snow 29 -1.7 20 -6.7 69 69 ENE 17 28 29.99 1016 7 11 0.00 0.03
7:01 am 07:01 Cloudy with Light Snow 28 -2.2 21 -6.1 75 75 ENE 13 20 30.06 1018 2 3 0.00 0.03
7:07 am 07:07 Mostly Cloudy with Light Snow 27 -2.8 22 -5.6 81 81 ENE 18 30 30.05 1018 1 1 0.00 0.03
7:14 am 07:14 Mostly Cloudy with Snow 27 -2.8 23 -5 85 85 E 16 26 30.05 1018 1 1 0.01 0.25
7:26 am 07:26 Mostly Cloudy with Snow 26 -3.3 23 -5 88 88 E 15 24 30.03 1017 1 1 0.02 0.51
7:40 am 07:40 Mostly Cloudy with Heavy Snow 26 -3.3 23 -5 88 88 E 17 28 30.01 1016 0 0 0.04 1.02
7:53 am 07:53 Mostly Cloudy with Snow 25 -3.9 23 -5 92 92 E 17 28 29.97 1015 0 0 0.05 1.27
8:12 am 08:12 Mostly Cloudy with Snow 26 -3.3 23 -5 88 88 E 16 26 30.00 1016 1 1 0.01 0.25
8:19 am 08:19 Cloudy with Light Snow 26 -3.3 23 -5 88 88 ENE 18 30 30.00 1016 1 1 0.02 0.51
8:26 am 08:26 Windy with Snow Likely 26 -3.3 22 -5.6 84 84 ENE 20 31 30.01 1016 2 2 0.02 0.51
8:44 am 08:44 Cloudy with Light Snow 26 -3.3 23 -5 88 88 ENE 10 17 30.06 1018 1 1 0.02 0.51
8:53 am 08:53 Mostly Cloudy with Light Snow 26 -3.3 23 -5 88 88 ENE 14 22 30.02 1017 1 1 0.03 0.76
9:08 am 09:08 Mostly Cloudy with Snow 26 -3.3 23 -5 88 88 ENE 15 24 30.06 1018 0 0 0.01 0.25
9:29 am 09:29 Mostly Cloudy with Snow 25 -3.9 23 -5 92 92 NE 14 22 30.08 1019 0 0 0.02 0.51
9:53 am 09:53 Mostly Cloudy with Heavy Snow 25 -3.9 23 -5 92 92 NE 18 30 30.01 1016 0 0 0.03 0.76
10:46 am 10:46 Mostly Cloudy with Snow 25 -3.9 22 -5.6 88 88 NE 22 35 30.02 1017 1 1 0.02 0.51
10:53 am 10:53 Mostly Cloudy with Snow 25 -3.9 22 -5.6 88 88 NE 22 35 29.98 1015 1 1 0.02 0.51
11:01 am 11:01 Mostly Cloudy with Heavy Snow 25 -3.9 22 -5.6 88 88 NE 20 31 30.03 1017 0 0 0.00 0.03
11:23 am 11:23 Mostly Cloudy with Heavy Snow 25 -3.9 22 -5.6 88 88 NE 23 37 30.03 1017 0 0 0.01 0.25
11:53 am 11:53 Mostly Cloudy with Heavy Snow 25 -3.9 23 -5 92 92 ENE 22 35 29.98 1015 0 0 0.03 0.76
12:53 pm 12:53 Mostly Cloudy with Heavy Snow 26 -3.3 23 -5 88 88 ENE 21 33 29.96 1015 0 0 0.03 0.76
1:02 pm 13:02 Mostly Cloudy with Snow 26 -3.3 23 -5 88 88 ENE 20 31 30.00 1016 1 1 0.00 0.03
1:19 pm 13:19 Mostly Cloudy with Light Snow 26 -3.3 23 -5 88 88 ENE 20 31 29.99 1016 1 1 0.01 0.25
1:26 pm 13:26 Mostly Cloudy with Snow 26 -3.3 23 -5 88 88 ENE 22 35 29.99 1016 1 1 0.01 0.25
1:30 pm 13:30 Cloudy with Heavy Snow 26 -3.3 23 -5 88 88 ENE 21 33 29.98 1015 0 0 0.01 0.25
1:41 pm 13:41 Cloudy with Snow 26 -3.3 23 -5 88 88 NE 20 31 29.98 1015 1 1 0.01 0.25
1:53 pm 13:53 Windy with Snow Likely 26 -3.3 23 -5 88 88 NE 21 33 29.94 1014 1 1 0.01 0.25
2:07 pm 14:07 Cloudy with Snow 27 -2.8 24 -4.4 89 89 ENE 16 26 29.98 1015 1 1 0.00 0.03
2:16 pm 14:16 Cloudy with Snow 27 -2.8 24 -4.4 89 89 ENE 21 33 29.98 1015 1 1 0.01 0.25
2:53 pm 14:53 Mostly Cloudy with Snow 28 -2.2 24 -4.4 85 85 ENE 23 37 29.93 1014 1 1 0.01 0.25
2:58 pm 14:58 Cloudy with Light Snow 28 -2.2 24 -4.4 85 85 ENE 18 30 29.98 1015 1 1 0.00 0.03
3:09 pm 15:09 Cloudy with Light Snow 28 -2.2 24 -4.4 85 85 ENE 17 28 29.98 1015 1 2 0.00 0.03
3:14 pm 15:14 Windy with Snow Likely 28 -2.2 24 -4.4 85 85 NE 21 33 29.97 1015 2 2 0.00 0.03
3:21 pm 15:21 Cloudy with Light Snow 28 -2.2 24 -4.4 85 85 ENE 16 26 29.98 1015 2 3 0.00 0.03
3:26 pm 15:26 Windy with Snow Likely 28 -2.2 24 -4.4 85 85 NE 20 31 29.98 1015 3 5 0.00 0.03
3:34 pm 15:34 Windy with Snow Likely 28 -2.2 24 -4.4 85 85 NE 24 39 29.98 1015 3 4 0.00 0.03
3:40 pm 15:40 Windy with Snow Likely 28 -2.2 23 -5 81 81 NE 21 33 29.99 1015 3 5 0.00 0.03
3:48 pm 15:48 Windy with Snow Likely 27 -3 23 -5 86 86 NE 23 37 29.98 1015 3 4 0.00 0.03
3:53 pm 15:53 Windy with Snow Likely 27 -2.8 24 -4.4 89 89 ENE 22 35 29.94 1014 2 3 0.00 0.03
3:57 pm 15:57 Windy with Snow Likely 27 -2.8 24 -4.4 89 89 NE 22 35 29.98 1015 2 2 0.00 0.03
4:00 pm 16:00 Windy with Snow Likely 27 -2.8 24 -4.4 89 89 ENE 21 33 29.98 1015 1 2 0.00 0.03
4:12 pm 16:12 Cloudy with Light Snow 27 -2.8 24 -4.4 89 89 ENE 18 30 29.98 1015 1 1 0.01 0.25
4:20 pm 16:20 Windy with Snow Likely 27 -2.8 24 -4.4 89 89 ENE 20 31 29.98 1015 1 1 0.01 0.25
4:26 pm 16:26 Cloudy with Light Snow 27 -2.8 24 -4.4 89 89 ENE 18 30 29.98 1015 2 2 0.01 0.25
4:48 pm 16:48 Windy with Snow Likely 28 -2 25 -4 86 86 ENE 20 31 29.98 1015 2 2 0.01 0.25
4:53 pm 16:53 Windy with Snow Likely 28 -2.2 24 -4.4 85 85 NE 23 37 29.94 1014 2 2 0.01 0.25
5:03 pm 17:03 Windy with Snow Likely 28 -2.2 24 -4.4 85 85 ENE 20 31 29.97 1015 1 2 0.00 0.03
5:10 pm 17:10 Windy with Snow Likely 28 -2.2 24 -4.4 85 85 NE 20 31 29.97 1015 2 2 0.01 0.25
5:18 pm 17:18 Windy with Snow Likely 28 -2.2 24 -4.4 85 85 NE 21 33 29.95 1014 2 3 0.01 0.25
5:33 pm 17:33 Cloudy with Light Snow 28 -2.2 24 -4.4 85 85 ENE 18 30 29.97 1015 2 2 0.01 0.25
5:42 pm 17:42 Windy with Snow Likely 28 -2.2 24 -4.4 85 85 ENE 21 33 29.97 1015 2 2 0.01 0.25
5:53 pm 17:53 Windy with Snow Likely 28 -2.2 24 -4.4 85 85 NE 22 35 29.94 1014 1 2 0.01 0.25
5:58 pm 17:58 Windy with Snow Likely 28 -2.2 25 -3.9 88 88 ENE 20 31 29.98 1015 1 1 0.00 0.03
6:25 pm 18:25 Windy with Snow Likely 28 -2.2 25 -3.9 88 88 ENE 21 33 29.98 1015 1 2 0.00 0.03
6:53 pm 18:53 Cloudy with Light Snow 28 -2.2 25 -3.9 88 88 NE 17 28 29.95 1014 1 2 0.01 0.25
7:01 pm 19:01 Mostly Cloudy with Light Snow 28 -2.2 25 -3.9 88 88 NE 18 30 29.98 1015 1 1 0.00 0.03
7:25 pm 19:25 Windy with Snow Likely 28 -2.2 25 -3.9 88 88 ENE 22 35 29.98 1015 1 1 0.00 0.03
7:27 pm 19:27 Windy with Snow Likely 28 -2.2 25 -3.9 88 88 NE 22 35 29.98 1015 1 2 0.00 0.03
7:44 pm 19:44 Mostly Cloudy with Light Snow 29 -1.7 25 -3.9 85 85 ENE 21 33 29.97 1015 1 1 0.00 0.03
7:53 pm 19:53 Windy with Snow Likely 28 -2.2 26 -3.3 92 92 ENE 20 31 29.96 1014 1 1 0.00 0.03
8:12 pm 20:12 Windy with Snow Likely 29 -1.7 26 -3.3 89 89 NE 20 31 29.97 1015 2 2 0.00 0.03
8:24 pm 20:24 Windy with Snow Likely 29 -1.7 26 -3.3 89 89 ENE 21 33 29.98 1015 1 2 0.00 0.03
8:34 pm 20:34 Windy with Snow Likely 29 -1.7 26 -3.3 89 89 ENE 22 35 29.98 1015 2 3 0.00 0.03
8:51 pm 20:51 Windy with Snow Likely 28 -2 27 -3 93 93 NE 21 33 29.98 1015 1 2 0.00 0.03
8:52 pm 20:52 Windy with Snow Likely 29 -1.7 26 -3.3 89 89 NE 20 31 29.95 1014 1 2 0.00 0.03
9:14 pm 21:14 Windy with Snow Likely 29 -1.7 26 -3.3 89 89 NE 20 31 29.99 1016 2 2 0.00 0.03
9:27 pm 21:27 Cloudy with Light Snow 29 -1.7 26 -3.3 89 89 NE 18 30 30.01 1016 2 3 0.00 0.03
9:38 pm 21:38 Cloudy with Light Snow 29 -1.7 26 -3.3 89 89 NE 18 30 30.00 1016 2 2 0.00 0.03
9:50 pm 21:50 Windy with Snow Likely 28 -2 27 -3 93 93 NE 20 31 30.00 1016 1 2 0.00 0.03
9:53 pm 21:53 Windy with Snow Likely 29 -1.7 26 -3.3 89 89 NE 21 33 29.98 1015 1 2 0.00 0.03
10:00 pm 22:00 Cloudy with Light Snow 29 -1.7 26 -3.3 89 89 NE 18 30 30.01 1016 2 3 0.00 0.03
10:12 pm 22:12 Windy with Snow Likely 29 -1.7 26 -3.3 89 89 NE 25 41 30.00 1016 2 3 0.01 0.25
10:27 pm 22:27 Windy with Snow Likely 29 -1.7 26 -3.3 89 89 NE 23 37 29.99 1016 1 2 0.01 0.25
10:35 pm 22:35 Mostly Cloudy with Light Snow 28 -2.2 26 -3.3 92 92 NE 23 37 30.00 1016 1 1 0.01 0.25
10:41 pm 22:41 Mostly Cloudy with Light Snow 28 -2.2 26 -3.3 92 92 NE 25 41 30.00 1016 1 1 0.01 0.25
10:48 pm 22:48 Windy with Snow Likely 28 -2 27 -3 93 93 NE 24 39 29.98 1015 1 2 0.01 0.25
10:49 pm 22:49 Windy with Snow Likely 28 -2.2 26 -3.3 92 92 NE 23 37 29.96 1015 1 2 0.01 0.25
11:16 pm 23:16 Windy with Snow Likely 28 -2.2 25 -3.9 88 88 NE 29 46 29.95 1014 1 2 0.00 0.03
11:18 pm 23:18 Mostly Cloudy with Light Snow 28 -2.2 25 -3.9 88 88 NE 28 44 29.95 1014 1 1 0.02 0.51
11:25 pm 23:25 Windy with Snow Likely 28 -2.2 26 -3.3 92 92 NE 26 43 29.94 1014 1 1 0.02 0.51
11:53 pm 23:53 Windy with Snow Likely 28 -2.2 25 -3.9 88 88 NE 26 43 29.91 1013 1 1 0.03 0.76

Powered by AerisWeather